Bookmark and Share
Track history (hours):
 

MOL Paramount

Last reported at 2014-Apr-24 08:33 UTC. Time now 2014-Apr-24 09:15 UTC.
Position N 44°26' W 063°29'.

Length 293 m; draft 13 m.

Type: Ship (hazmat cat A). MMSI: 371519000.

NotesDate/timePositionNaut miles runAvg speedWind from/ knotsBaromVisibWave heightAir tempDewpointWater temp
2014-Apr-24 08:33N 44°26' W 063°29'1010.0
2014-Apr-24 07:33N 44°36' W 063°32'7 6.5
2014-Apr-24 06:33N 44°41' W 063°38'1 0.8
2014-Apr-24 05:27N 44°40' W 063°38'0 0.0
2014-Apr-24 04:24N 44°40' W 063°38'0 0.0
2014-Apr-24 03:27N 44°40' W 063°38'0 0.0
2014-Apr-24 02:30N 44°40' W 063°38'0 0.0
2014-Apr-24 01:30N 44°40' W 063°38'0 0.0
2014-Apr-24 00:18N 44°40' W 063°38'0 0.0
2014-Apr-23 23:33N 44°40' W 063°38'0 0.0
2014-Apr-23 22:18N 44°40' W 063°38'0 0.0
2014-Apr-23 21:33N 44°40' W 063°38'0 0.0
2014-Apr-23 20:33N 44°40' W 063°38'0 0.0
2014-Apr-23 19:18N 44°40' W 063°38'0 0.0
2014-Apr-23 18:24N 44°40' W 063°38'0 0.0
2014-Apr-23 17:21N 44°40' W 063°38'0 0.0
2014-Apr-23 16:27N 44°40' W 063°38'0 0.0
2014-Apr-23 15:27N 44°40' W 063°38'1 1.0
2014-Apr-23 14:33N 44°41' W 063°37'7 6.6
2014-Apr-23 13:33N 44°35' W 063°32'6 6.4
2014-Apr-23 12:33N 44°29' W 063°29'  
2014-Apr-17 21:07N 36°50' W 011°05'1120.1
2014-Apr-17 20:33N 36°46' W 010°51'2220.3
2014-Apr-17 19:28N 36°39' W 010°26'1920.4
2014-Apr-17 18:33N 36°34' W 010°03'4120.6
2014-Apr-17 16:33N 36°23' W 009°14'2921.0
2014-Apr-17 15:10N 36°15' W 008°39'1320.9
2014-Apr-17 14:33N 36°12' W 008°24'2121.0
2014-Apr-17 13:33N 36°07' W 007°58'2320.8
2014-Apr-17 12:28N 36°01' W 007°31'9319.0
2014-Apr-17 07:33N 35°57' W 005°36'1212.1
2014-Apr-17 06:33N 36°01' W 005°22'1616.3
2014-Apr-17 05:33N 36°04' W 005°02'16420.5
2014-Apr-16 21:33N 36°32' W 001°42'17819.8
2014-Apr-16 12:32N 37°15' E 001°54'3919.6
2014-Apr-16 10:33N 37°25' E 002°41'3919.6
2014-Apr-16 08:33N 37°35' E 003°29'2319.6
2014-Apr-16 07:24N 37°40' E 003°57'1719.9
2014-Apr-16 06:33N 37°44' E 004°18'20019.9
2014-Apr-15 20:29N 38°33' E 008°25'1920.4
2014-Apr-15 19:32N 38°37' E 008°49'2019.9
2014-Apr-15 18:33N 38°53' E 009°04'1414.0
2014-Apr-15 17:32N 39°07' E 009°06'6 5.9
2014-Apr-15 16:33N 39°13' E 009°04'0 0.1
2014-Apr-15 15:33N 39°13' E 009°04'0 0.0
2014-Apr-15 11:33N 39°13' E 009°04'0 0.0
2014-Apr-15 10:33N 39°13' E 009°04'0 0.0
2014-Apr-15 09:33N 39°13' E 009°04'0 0.0
2014-Apr-15 08:33N 39°13' E 009°04'0 0.0
2014-Apr-15 07:33N 39°13' E 009°04'0 0.0
2014-Apr-15 06:33N 39°13' E 009°04'0 0.0
2014-Apr-15 05:33N 39°13' E 009°04'0 0.2
2014-Apr-15 03:34N 39°13' E 009°04'3 2.6
2014-Apr-15 02:34N 39°11' E 009°06'9 8.5
2014-Apr-15 01:33N 39°03' E 009°11'2 1.6
2014-Apr-15 00:34N 39°02' E 009°13'8 8.4
2014-Apr-14 23:33N 38°55' E 009°19'1515.0
2014-Apr-14 22:33N 38°44' E 009°31'9719.5
2014-Apr-14 17:34N 37°34' E 010°57'5718.8
2014-Apr-14 14:31N 37°07' E 012°00'1818.8
2014-Apr-14 13:32N 36°58' E 012°20'  

Dump ship's entire track history

sailing weather and tide predictions

MOL Paramount — 3ECH9 — position and weather